Natchitoches, LA

8:11 AM CST on November 21, 2019 (GMT -0600)
Natchitoches Regional

Weather History for KIER - September, 2019

Change the Weather History Date:

Thursday, September 12, 2019

  Actual Average Record
Temperature  
Mean Temperature 83 °F -  
Max Temperature 98 °F 88 °F 99 °F (1930)
Min Temperature 68 °F 67 °F 47 °F (1940)
Cooling Degree Days 18    
Growing Degree Days 33 (Base 50)    
Moisture  
Dew Point 68 °F    
Average Humidity 70    
Maximum Humidity 100    
Minimum Humidity 31    
Precipitation  
Precipitation 0.00 in - - ()
Sea Level Pressure  
Sea Level Pressure 30.08 in    
Wind  
Wind Speed 2 mph (SE)    
Max Wind Speed 14 mph    
Max Gust Speed 17 mph    
Visibility 9 miles    
Events      
Averages and records for this station are not official NWS values.
T = Trace of Precipitation, MM = Missing Value Source: NWS Daily Summary

Daily Weather History Graph

Daily Weather History Graph

Search for Another Location

Airport or City:

Astronomy

Sep. 12, 2019 Rise Set
Actual Time 6:54 AM CDT 7:22 PM CDT
Civil Twilight 6:29 AM CDT 7:46 PM CDT
Nautical Twilight 6:01 AM CDT 8:15 PM CDT
Astronomical Twilight 5:32 AM CDT 8:44 PM CDT
Moon 6:59 PM CDT (9/12) 5:24 AM CDT (9/12)
Length of Visible Light 13h 16m
Length of Day
12h 27m
Waxing Gibbous, 98% of the Moon is Illuminated
Sep 12
Waxing Gibbous
Sep 13
Full
Sep 21
Last Quarter
Sep 28
New
Oct 5
First Quarter

Hourly Weather History & Observations

Time (CDT) Temp. Heat Index Dew Point Humidity Pressure Visibility Wind Dir Wind Speed Gust Speed Precip Events Conditions
12:15 AM 72.5 °F - 70.2 °F 92% 30.09 in 10.0 mi Calm Calm - N/A   Clear
12:35 AM 72.0 °F - 70.0 °F 93% 30.09 in 10.0 mi Calm Calm - N/A   Clear
12:55 AM 72.5 °F - 70.2 °F 92% 30.09 in 10.0 mi Calm Calm - N/A   Clear
1:15 AM 72.1 °F - 70.0 °F 93% 30.08 in 10.0 mi Calm Calm - N/A   Clear
1:35 AM 71.1 °F - 69.8 °F 96% 30.08 in 10.0 mi Calm Calm - N/A   Clear
1:55 AM 71.1 °F - 69.8 °F 96% 30.08 in 10.0 mi Calm Calm - N/A   Clear
2:15 AM 71.2 °F - 69.6 °F 95% 30.07 in 10.0 mi Calm Calm - N/A   Clear
2:35 AM 70.7 °F - 68.7 °F 93% 30.06 in 10.0 mi Calm Calm - N/A   Clear
2:55 AM 70.0 °F - 69.3 °F 98% 30.06 in 10.0 mi Calm Calm - N/A   Clear
3:15 AM 70.0 °F - 69.3 °F 98% 30.06 in 10.0 mi Calm Calm - N/A   Clear
3:30 AM 70.2 °F - 69.4 °F 98% 30.06 in 10.0 mi Calm Calm - N/A   Clear
3:55 AM 70.0 °F - 69.4 °F 98% 30.06 in 10.0 mi Calm Calm - N/A   Clear
4:10 AM 70.0 °F - 69.4 °F 98% 30.06 in 10.0 mi Calm Calm - N/A   Clear
4:35 AM 69.8 °F - 69.1 °F 98% 30.06 in 7.0 mi Calm Calm - N/A   Clear
4:55 AM 69.1 °F - 68.7 °F 99% 30.07 in 7.0 mi Calm Calm - N/A   Clear
5:15 AM 69.4 °F - 69.1 °F 99% 30.07 in 7.0 mi Calm Calm - N/A   Clear
5:55 AM 68.9 °F - 68.7 °F 99% 30.09 in 3.0 mi Calm Calm - N/A   Clear
6:15 AM 68.9 °F - 68.9 °F 100% 30.09 in 7.0 mi Calm Calm - N/A   Clear
6:35 AM 68.5 °F - 68.4 °F 99% 30.10 in 5.0 mi Calm Calm - N/A   Clear
6:55 AM 68.9 °F - 68.5 °F 99% 30.10 in 3.0 mi Calm Calm - N/A   Clear
7:15 AM 68.0 °F - 68.0 °F 100% 30.10 in 2.0 mi Calm Calm - N/A   Clear
7:35 AM 69.1 °F - 68.9 °F 99% 30.11 in 3.0 mi Calm Calm - N/A   Clear
7:55 AM 71.2 °F - 71.1 °F 99% 30.11 in 7.0 mi Calm Calm - N/A   Clear
8:15 AM 73.2 °F - 72.9 °F 99% 30.12 in 7.0 mi Calm Calm - N/A   Clear
8:35 AM 78.8 °F - 73.8 °F 84% 30.13 in 10.0 mi Calm Calm - N/A   Clear
8:55 AM 82.0 °F 87.7 °F 73.6 °F 75% 30.14 in 10.0 mi Calm Calm - N/A   Clear
9:15 AM 83.1 °F 89.8 °F 74.1 °F 74% 30.14 in 10.0 mi Calm Calm - N/A   Clear
9:55 AM 87.8 °F 97.6 °F 75.4 °F 66% 30.14 in 10.0 mi Calm Calm - N/A   Clear
10:15 AM 88.2 °F 97.4 °F 74.5 °F 64% 30.14 in 10.0 mi SE 3.5 mph - N/A   Clear
10:35 AM 87.4 °F 95.8 °F 74.1 °F 64% 30.14 in 10.0 mi Calm Calm - N/A   Clear
10:55 AM 88.9 °F 95.6 °F 71.8 °F 57% 30.14 in 10.0 mi SSE 4.6 mph - N/A   Clear
11:15 AM 90.5 °F 98.1 °F 72.5 °F 55% 30.14 in 10.0 mi Calm Calm - N/A   Clear
11:35 AM 91.6 °F 98.8 °F 71.4 °F 52% 30.14 in 10.0 mi ESE 3.5 mph - N/A   Clear
11:55 AM 92.3 °F 95.6 °F 66.7 °F 43% 30.13 in 10.0 mi South 6.9 mph - N/A   Clear
12:15 PM 92.5 °F 95.9 °F 66.9 °F 43% 30.13 in 10.0 mi SSE 8.1 mph - N/A   Clear
12:35 PM 93.0 °F 96.4 °F 66.7 °F 42% 30.12 in 10.0 mi SSE 11.5 mph 16.1 mph N/A   Clear
12:55 PM 93.6 °F 96.4 °F 66.0 °F 40% 30.12 in 10.0 mi ESE 4.6 mph - N/A   Clear
1:15 PM 95.0 °F 97.4 °F 65.3 °F 37% 30.11 in 10.0 mi South 8.1 mph - N/A   Clear
1:35 PM 95.0 °F 97.9 °F 65.8 °F 38% 30.11 in 10.0 mi SSE 13.8 mph 17.3 mph N/A   Clear
2:15 PM 95.9 °F 98.5 °F 64.8 °F 36% 30.09 in 10.0 mi SSE 6.9 mph - N/A   Clear
2:35 PM 96.1 °F 98.8 °F 65.3 °F 36% 30.08 in 10.0 mi SE 6.9 mph - N/A   Clear
2:55 PM 97.2 °F 99.6 °F 64.6 °F 34% 30.08 in 10.0 mi SSE 4.6 mph - N/A   Clear
3:15 PM 97.5 °F 98.7 °F 62.4 °F 31% 30.07 in 10.0 mi SSW 3.5 mph - N/A   Scattered Clouds
3:35 PM 97.0 °F 98.8 °F 63.9 °F 33% 30.06 in 10.0 mi SE 3.5 mph - N/A   Scattered Clouds
3:55 PM 97.0 °F 99.9 °F 64.8 °F 35% 30.06 in 10.0 mi SE 3.5 mph - N/A   Scattered Clouds
4:15 PM 98.4 °F 100.7 °F 63.9 °F 32% 30.05 in 10.0 mi ESE 5.8 mph - N/A   Mostly Cloudy
4:35 PM 97.2 °F 99.1 °F 63.5 °F 33% 30.05 in 10.0 mi East 6.9 mph - N/A   Scattered Clouds
4:55 PM 97.2 °F 99.1 °F 63.9 °F 33% 30.04 in 10.0 mi ESE 5.8 mph - N/A   Clear
5:15 PM 96.8 °F 99.5 °F 64.9 °F 35% 30.03 in 10.0 mi SE 6.9 mph - N/A   Clear
5:35 PM 95.9 °F 98.0 °F 64.2 °F 35% 30.03 in 10.0 mi SE 5.8 mph - N/A   Clear
5:55 PM 95.0 °F 96.5 °F 63.7 °F 35% 30.03 in 10.0 mi ESE 8.1 mph - N/A   Clear
6:15 PM 94.3 °F 95.3 °F 63.0 °F 35% 30.03 in 10.0 mi ESE 6.9 mph - N/A   Clear
6:35 PM 92.8 °F 94.7 °F 64.2 °F 39% 30.03 in 10.0 mi SE 4.6 mph - N/A   Clear
6:55 PM 90.3 °F 91.9 °F 64.6 °F 42% 30.03 in 10.0 mi SSE 5.8 mph - N/A   Clear
7:15 PM 87.8 °F 90.0 °F 65.8 °F 48% 30.03 in 10.0 mi SSE 4.6 mph - N/A   Clear
7:35 PM 85.1 °F 87.1 °F 65.5 °F 52% 30.03 in 10.0 mi SE 3.5 mph - N/A   Clear
7:55 PM 80.2 °F 83.0 °F 68.5 °F 67% 30.04 in 10.0 mi Calm Calm - N/A   Clear
8:15 PM 78.4 °F - 68.7 °F 72% 30.04 in 10.0 mi Calm Calm - N/A   Clear
8:55 PM 76.1 °F - 69.6 °F 80% 30.05 in 10.0 mi Calm Calm - N/A   Clear
9:15 PM 75.6 °F - 69.8 °F 82% 30.06 in 10.0 mi Calm Calm - N/A   Clear
9:35 PM 74.8 °F - 69.8 °F 84% 30.07 in 10.0 mi Calm Calm - N/A   Clear
9:55 PM 73.6 °F - 69.4 °F 87% 30.07 in 10.0 mi Calm Calm - N/A   Clear
10:15 PM 73.4 °F - 69.8 °F 88% 30.08 in 10.0 mi Calm Calm - N/A   Clear
10:35 PM 73.4 °F - 69.4 °F 87% 30.07 in 10.0 mi Calm Calm - N/A   Clear
11:35 PM 72.1 °F - 68.9 °F 89% 30.09 in 10.0 mi Calm Calm - N/A   Clear
11:55 PM 71.6 °F - 68.9 °F 91% 30.09 in 10.0 mi Calm Calm - N/A   Clear